Wetbulb
56.33 50.32 48.71 52.10 54.83 55.14 52.79 51.31 49.83 53.83 57.05 54.01 52.65 53.99 55.98 58.14 59.62 58.12 57.56 59.47 62.41 63.93 67.59 68.54 69.59 69.41 69.73 69.13 68.59 69.00 68.80 69.03 69.14 67.64 66.67 66.26 65.43 66.11 65.73 65.85 65.99 65.59 64.56 65.26
52.93 48.88 55.06 56.84 55.98 54.67 53.44 51.40 51.11 54.31 57.04 54.40 53.74 53.44 56.34 59.49 57.87 57.40 58.28 58.69 59.04 57.57 64.47 67.11 67.87 68.41 68.10 67.83 68.17 68.62 68.17 68.24 67.57 67.91 66.83 66.11 66.17 65.95 65.31 64.89 64.43 65.05 65.07 61.98
50.30 53.13 58.07 56.48 54.60 53.52 52.93 51.13 51.12 49.26 52.34 52.67 50.49 49.17 54.18 57.04 59.22 58.86 57.68 59.99 58.55 58.44 60.81 65.66 67.02 67.37 67.71 67.44 67.71 68.71 67.44 66.90 66.99 66.67 66.34 65.51 65.14 64.52 63.15 62.74 62.86 62.24 60.83 59.59
53.09 56.65 56.01 54.71 53.62 54.52 46.73 52.08 51.41 50.39 47.99 42.28 49.68 41.64 49.02 54.19 55.49 56.56 58.32 58.17 60.33 62.56 63.69 65.74 66.21 66.02 66.78 66.96 68.34 67.14 67.13 66.52 66.64 66.66 65.18 63.34 62.18 60.76 61.21 61.99 61.56 61.44 60.06 58.38
52.16 53.75 54.82 53.84 53.58 53.71 49.61 52.62 50.80 50.83 47.57 44.17 48.00 43.13 46.80 53.78 54.27 53.77 56.56 58.02 56.23 60.50 64.83 64.75 65.32 66.33 67.06 67.27 67.25 66.62 66.84 65.93 65.82 65.25 64.43 62.78 60.87 61.43 61.62 62.89 62.26 58.01 57.34 57.29
52.99 56.36 53.88 52.51 54.58 54.29 55.01 51.92 50.77 49.84 46.76 40.31 45.67 45.11 43.82 49.40 52.59 54.39 56.74 57.62 57.27 60.57 64.58 62.47 63.86 66.37 65.95 66.60 66.53 66.75 66.24 65.00 64.81 63.70 60.97 60.11 58.57 57.84 56.82 56.35 54.33 57.93 57.64 56.68
52.44 53.12 55.06 57.71 52.67 54.73 53.14 49.09 39.84 38.56 38.45 38.07 47.51 45.69 46.25 52.99 55.47 55.47 55.44 57.94 59.13 61.18 62.32 62.56 64.14 64.93 65.33 64.92 64.69 65.32 64.61 63.50 63.35 60.59 59.96 59.39 58.29 57.29 55.55 53.55 51.16 52.66 54.08 54.59
46.47 46.27 54.38 56.76 53.25 51.06 51.10 47.20 40.21 35.16 37.15 40.30 48.94 43.98 50.63 54.71 56.17 57.21 57.84 58.24 60.30 62.22 61.28 61.76 64.04 64.89 64.68 65.15 65.40 64.78 63.58 62.19 60.08 59.86 58.82 59.21 59.67 56.03 55.46 53.30 51.69 53.43 53.43 54.31
46.81 48.57 56.66 57.06 56.19 54.45 50.27 45.04 49.79 44.00 44.90 41.76 45.06 47.95 54.04 56.34 55.85 57.58 57.46 58.15 58.65 59.82 60.70 61.46 63.87 63.97 64.67 64.62 64.39 64.62 61.43 58.86 58.09 59.06 58.98 58.83 57.26 56.24 54.51 53.92 53.25 55.02 53.48 54.82
51.87 45.83 54.43 56.84 58.16 55.22 50.25 52.73 44.78 44.97 37.47 35.88 42.38 44.36 44.81 50.71 53.00 55.89 55.27 56.26 57.14 57.57 58.54 60.68 61.90 63.33 63.91 63.77 62.68 58.72 57.64 57.12 58.35 60.04 59.12 60.37 57.90 56.56 54.71 53.83 53.03 53.94 54.06 55.04
53.12 50.42 51.15 54.47 51.02 49.59 49.98 46.89 47.36 46.87 45.10 41.17 38.22 42.05 51.07 50.52 52.66 52.95 54.52 57.66 56.27 57.48 58.99 58.41 57.81 60.83 59.27 59.88 58.90 57.47 57.27 57.91 59.03 58.92 61.21 60.55 59.39 56.21 54.46 53.69 54.37 54.64 55.17 54.93
54.17 50.31 45.01 47.77 52.88 54.12 51.42 49.38 49.57 42.88 41.83 45.15 43.00 43.25 54.90 53.43 53.89 55.72 56.13 57.43 55.51 56.20 57.75 58.60 57.29 58.48 57.61 57.23 56.77 57.91 57.61 58.17 58.26 58.96 59.50 57.87 56.96 55.68 55.11 54.56 54.40 54.89 55.17 55.98
52.08 46.71 39.80 42.30 46.97 51.82 50.00 51.90 49.78 49.90 47.69 44.24 40.60 42.66 54.43 55.55 53.33 55.20 56.97 53.16 55.55 57.46 56.66 58.03 57.80 57.26 57.31 57.43 57.44 58.63 57.85 57.73 58.96 59.33 58.06 57.63 56.81 56.10 54.99 54.70 55.12 55.08 55.34 55.63
56.51 48.19 44.34 39.88 45.14 49.59 48.47 51.07 50.87 48.90 43.04 43.74 43.93 45.33 49.11 53.39 53.39 54.60 54.94 54.98 55.64 56.25 56.84 57.49 57.87 57.22 57.81 58.61 58.58 58.93 58.47 58.80 58.36 58.67 57.88 56.62 56.10 55.58 55.60 56.11 56.04 55.58 55.82 55.43
55.52 48.96 50.53 51.97 52.70 52.51 51.20 50.96 51.66 48.61 48.16 43.89 46.07 46.02 49.15 52.73 52.81 54.67 54.16 54.43 54.69 54.94 55.72 56.22 56.61 56.64 57.44 58.04 58.74 59.39 58.97 58.00 56.24 56.12 55.29 55.06 55.90 55.77 56.35 56.84 56.67 56.78 56.38 56.43
56.74 50.17 51.61 50.24 53.94 52.48 50.94 53.06 52.84 52.15 50.55 49.69 49.61 46.93 51.31 53.37 54.21 54.65 54.97 53.80 54.99 55.57 56.12 56.55 57.83 57.11 56.72 58.93 59.84 60.77 57.57 56.06 55.65 55.06 55.06 56.24 56.15 56.94 56.77 56.52 56.89 56.75 56.83 56.81
54.29 51.10 48.70 44.06 51.52 50.99 46.49 52.05 52.62 51.65 50.70 49.34 45.18 47.69 51.08 50.79 52.20 54.08 54.66 55.12 55.08 54.90 55.79 56.16 57.44 58.58 59.94 60.03 60.62 57.57 57.79 56.10 55.79 56.17 57.34 58.44 57.99 58.55 58.34 58.55 56.25 55.95 56.53 56.12
51.13 49.87 48.85 44.25 46.96 39.32 49.51 54.63 54.57 52.03 50.77 50.88 49.83 50.21 50.89 50.11 51.91 54.14 55.68 55.31 54.20 55.77 56.16 55.70 56.93 57.15 58.96 59.38 58.15 58.05 57.26 56.87 57.08 56.35 56.52 58.22 57.50 57.12 57.35 56.77 56.81 56.51 56.77 56.91
54.66 50.83 45.05 42.66 43.45 48.48 51.99 52.99 51.93 48.75 48.27 52.37 50.79 51.75 52.77 53.40 52.78 51.58 55.28 54.92 56.40 55.04 56.74 56.42 57.28 56.93 56.61 56.76 56.11 53.77 52.54 52.16 52.32 52.29 52.86 54.97 55.23 54.01 53.92 54.37 53.95 55.08 54.70 54.48
56.43 53.82 47.95 44.29 40.55 39.21 49.61 56.06 58.48 54.64 44.25 53.76 53.59 52.78 52.47 52.77 46.71 50.18 55.64 57.72 57.55 58.02 56.98 55.33 54.41 54.18 54.16 53.93 52.62 50.82 49.39 49.04 49.11 50.73 51.56 52.35 52.52 51.30 50.42 50.95 51.11 51.17 51.87 52.80
49.84 49.48 46.96 45.50 43.78 48.75 55.33 58.44 57.73 44.43 45.05 54.41 55.04 54.53 53.85 50.63 52.50 53.43 56.55 57.89 57.57 55.95 54.29 53.43 52.08 50.58 49.99 52.24 50.03 47.43 46.22 45.22 47.01 48.90 49.01 48.38 48.91 48.86 46.85 44.57 45.83 49.43 49.68 50.60
49.48 47.86 47.04 48.21 45.73 41.60 56.28 55.33 50.61 52.55 55.26 56.20 55.95 55.16 56.01 54.59 55.76 56.32 56.99 56.77 56.20 54.47 53.95 52.72 50.16 48.62 47.95 48.33 47.14 44.23 42.80 43.96 44.94 45.74 44.93 44.24 45.34 45.89 43.10 41.19 43.49 42.58 45.56 46.27
47.69 50.92 48.26 48.03 48.36 54.66 56.96 55.15 55.77 55.48 56.33 55.66 55.46 55.27 57.06 56.73 55.97 56.71 55.61 54.44 54.03 53.65 52.77 51.90 49.71 47.77 46.76 45.91 44.61 41.85 41.69 42.25 42.69 42.00 41.07 41.43 42.59 40.80 40.01 40.43 38.86 39.25 38.12 38.25
53.36 56.25 50.73 49.33 52.02 54.04 56.29 56.49 58.25 57.42 57.16 57.98 57.11 57.10 57.28 56.05 56.92 55.20 53.91 53.10 53.34 52.48 51.74 51.49 49.20 45.87 44.39 44.07 43.29 41.23 41.88 41.85 40.96 39.15 39.47 39.82 37.56 38.22 38.23 39.38 39.55 36.50 36.07 34.86
52.75 54.03 50.45 50.26 53.47 54.49 55.45 54.96 58.60 56.84 58.04 57.63 58.82 58.74 57.63 56.70 55.15 54.88 54.41 53.67 52.32 50.05 48.99 48.26 46.99 46.05 44.28 43.10 41.34 41.20 41.60 40.67 39.15 38.44 38.76 37.60 36.50 35.62 36.10 36.76 36.96 37.37 36.16 36.22
55.04 54.51 49.97 49.42 54.63 52.51 54.02 55.54 56.00 58.27 57.21 57.80 56.51 56.32 57.03 56.23 54.38 54.58 52.32 51.56 48.22 45.44 44.04 43.73 43.26 42.59 42.02 41.83 40.75 40.40 40.70 39.86 38.44 37.25 36.90 36.45 35.46 36.02 36.05 36.32 36.11 39.48 39.63 40.25
MSLP
1006.09 1006.77 1007.44 1007.13 1007.62 1007.44 1007.58 1007.60 1007.30 1006.24 1006.03 1006.26 1006.85 1006.24 1005.88 1005.48 1006.54 1007.96 1008.89 1009.34 1009.55 1009.18 1009.72 1009.34 1010.33 1011.05 1012.00 1012.59 1012.96 1013.10 1013.60 1014.15 1014.45 1014.98 1015.37 1015.84 1016.29 1016.50 1016.76 1016.96 1017.10 1017.34 1017.49 1017.76
1006.39 1006.42 1006.68 1006.53 1006.90 1007.25 1006.66 1006.71 1006.07 1005.46 1005.14 1006.00 1005.66 1005.71 1004.79 1005.92 1007.11 1007.85 1008.69 1009.75 1010.35 1012.18 1010.35 1010.06 1010.40 1011.23 1012.15 1012.88 1013.06 1013.53 1013.76 1014.23 1014.56 1014.76 1015.20 1015.49 1015.88 1016.36 1016.65 1016.88 1017.05 1017.23 1017.45 1017.90
1005.80 1005.36 1006.04 1005.72 1005.88 1005.96 1005.65 1005.47 1005.51 1004.71 1004.22 1004.27 1005.00 1005.90 1006.56 1007.26 1007.67 1008.83 1009.51 1009.68 1009.34 1008.99 1010.39 1012.51 1011.39 1011.76 1012.67 1013.49 1013.36 1013.91 1013.98 1014.33 1014.46 1014.75 1015.34 1015.74 1016.00 1016.50 1016.96 1017.10 1017.19 1017.36 1017.55 1018.09
1004.91 1003.97 1004.76 1004.77 1005.07 1004.70 1004.57 1004.04 1004.12 1004.50 1004.90 1005.25 1005.11 1006.45 1006.93 1007.36 1007.92 1008.55 1009.22 1009.66 1008.97 1008.34 1010.04 1011.43 1010.99 1011.81 1012.48 1013.25 1013.34 1014.02 1014.07 1014.26 1014.76 1014.96 1015.53 1016.08 1016.34 1016.73 1016.90 1017.03 1017.13 1017.22 1017.39 1018.04
1004.58 1004.03 1004.02 1004.25 1003.78 1003.39 1003.69 1003.51 1004.19 1004.69 1005.24 1005.75 1005.98 1007.08 1007.35 1007.27 1008.50 1009.00 1008.80 1010.32 1010.53 1009.82 1009.71 1011.14 1011.67 1012.25 1012.11 1013.11 1013.52 1014.31 1014.20 1014.40 1014.89 1015.12 1015.72 1016.23 1016.43 1016.62 1016.74 1017.05 1017.49 1017.35 1017.65 1018.14
1004.09 1003.35 1003.20 1002.80 1002.77 1003.00 1003.36 1003.90 1004.51 1005.07 1005.92 1006.86 1006.99 1007.97 1009.30 1009.57 1009.79 1010.03 1009.47 1010.57 1011.72 1011.50 1010.59 1010.79 1012.48 1012.45 1012.79 1013.47 1014.16 1014.66 1014.34 1014.46 1014.98 1015.41 1016.11 1016.63 1016.99 1017.18 1017.54 1017.95 1018.20 1018.16 1018.24 1018.47
1004.12 1003.72 1002.93 1002.91 1002.98 1003.32 1004.21 1005.14 1006.10 1006.87 1007.35 1007.95 1007.74 1008.72 1011.57 1011.00 1010.82 1010.68 1010.45 1010.13 1009.92 1011.10 1011.28 1012.25 1012.82 1012.41 1013.26 1014.35 1014.62 1015.01 1014.61 1014.58 1014.99 1015.70 1016.36 1016.86 1017.28 1017.57 1017.98 1018.26 1018.34 1018.46 1018.54 1018.66
1004.83 1004.10 1003.30 1003.49 1003.96 1004.54 1005.05 1005.62 1007.15 1007.73 1008.51 1008.75 1008.75 1010.26 1010.90 1010.76 1010.21 1010.99 1011.29 1010.99 1011.55 1012.34 1012.18 1012.52 1011.76 1012.25 1012.97 1014.39 1014.75 1014.81 1014.35 1014.53 1015.28 1015.59 1016.23 1016.78 1017.39 1017.77 1017.98 1018.11 1018.28 1018.43 1018.70 1018.76
1005.34 1004.50 1004.14 1004.09 1004.29 1004.76 1004.85 1005.46 1005.97 1007.47 1008.42 1009.33 1010.05 1011.55 1011.51 1011.12 1010.98 1011.75 1011.70 1012.31 1012.25 1013.22 1013.53 1012.49 1011.01 1011.47 1012.83 1014.04 1014.52 1014.61 1014.20 1014.52 1015.31 1015.75 1015.91 1016.54 1016.99 1017.37 1017.75 1018.04 1018.22 1018.33 1018.20 1018.14
1005.55 1005.21 1004.60 1004.19 1003.90 1003.79 1004.50 1005.26 1006.17 1007.68 1009.53 1010.39 1010.72 1011.38 1012.10 1011.57 1011.84 1012.11 1012.15 1013.00 1013.53 1012.58 1011.84 1011.32 1011.32 1010.96 1012.01 1013.47 1014.16 1014.19 1014.28 1014.65 1014.48 1015.48 1015.70 1016.22 1016.64 1016.96 1017.19 1017.63 1017.97 1018.13 1018.11 1017.94
1006.40 1006.26 1006.13 1005.53 1005.23 1004.96 1004.85 1005.26 1006.39 1008.09 1009.42 1010.87 1011.31 1012.23 1012.25 1012.04 1012.20 1012.35 1013.30 1013.40 1013.26 1012.43 1012.00 1012.20 1013.21 1011.75 1011.91 1012.65 1013.65 1013.71 1014.01 1014.24 1014.41 1015.23 1015.67 1015.89 1016.41 1016.92 1017.17 1017.44 1017.63 1017.85 1017.93 1017.82
1006.54 1006.88 1007.15 1006.67 1005.28 1004.87 1004.82 1005.42 1006.28 1008.24 1009.49 1010.44 1011.20 1012.63 1012.58 1012.08 1012.30 1013.09 1013.63 1014.03 1014.05 1013.53 1012.17 1013.30 1014.42 1013.91 1012.81 1013.09 1013.17 1013.31 1013.93 1014.15 1013.92 1015.02 1015.31 1015.77 1016.30 1016.71 1017.03 1017.26 1017.45 1017.57 1017.58 1017.45
1007.15 1007.70 1008.15 1007.13 1006.05 1004.94 1005.18 1005.39 1005.90 1007.11 1008.59 1010.23 1011.60 1012.38 1012.34 1012.27 1012.70 1013.08 1013.83 1014.87 1014.94 1014.56 1014.55 1013.96 1013.59 1013.77 1013.24 1013.36 1013.28 1013.41 1013.80 1013.80 1013.88 1014.90 1015.42 1015.97 1016.21 1016.63 1016.74 1016.95 1017.12 1017.31 1017.31 1017.21
1007.66 1008.30 1008.63 1008.35 1007.53 1006.67 1005.91 1005.58 1005.97 1007.08 1008.82 1010.13 1011.08 1012.01 1012.57 1012.97 1013.36 1013.48 1014.16 1014.92 1015.08 1015.13 1014.49 1013.87 1013.73 1013.54 1013.54 1013.68 1013.08 1013.28 1013.27 1013.48 1014.07 1014.87 1015.54 1015.90 1015.97 1016.21 1016.49 1016.55 1016.76 1016.88 1016.79 1016.67
1007.67 1008.50 1008.57 1008.33 1007.39 1006.51 1005.91 1005.61 1006.01 1006.95 1008.23 1009.66 1010.82 1011.94 1012.89 1013.20 1013.35 1013.53 1013.98 1014.38 1014.63 1014.79 1014.58 1014.50 1014.42 1014.24 1013.89 1014.03 1014.20 1013.40 1013.31 1013.81 1014.48 1015.07 1015.51 1015.59 1015.57 1015.71 1015.95 1016.06 1016.18 1016.19 1016.12 1015.92
1007.79 1007.90 1008.25 1008.35 1007.65 1006.51 1005.74 1004.98 1005.77 1006.72 1007.84 1009.28 1010.47 1011.92 1012.58 1013.00 1013.19 1013.53 1013.86 1013.97 1014.23 1014.30 1014.25 1013.97 1014.32 1014.75 1015.13 1014.98 1014.15 1014.28 1013.98 1014.29 1014.52 1014.99 1015.18 1015.07 1015.17 1015.44 1015.57 1015.71 1015.82 1015.81 1015.72 1015.60
1007.90 1008.07 1008.53 1008.62 1008.00 1007.04 1006.15 1005.12 1005.54 1006.48 1007.76 1008.82 1010.24 1011.55 1012.34 1013.05 1013.36 1013.52 1013.57 1013.71 1013.88 1013.90 1014.00 1014.33 1014.56 1014.73 1014.89 1014.71 1014.89 1014.83 1014.22 1014.36 1014.68 1014.96 1015.18 1015.35 1015.45 1015.75 1015.79 1015.73 1015.88 1015.92 1015.81 1015.58
1007.78 1008.41 1008.91 1009.07 1008.78 1007.74 1006.11 1005.61 1005.87 1006.85 1008.18 1009.11 1010.26 1011.21 1012.02 1012.78 1013.06 1013.09 1013.08 1013.51 1013.83 1013.98 1014.26 1014.38 1014.57 1014.93 1015.08 1015.09 1015.22 1015.17 1015.22 1015.46 1015.59 1016.04 1016.17 1016.14 1016.11 1016.41 1016.57 1016.54 1016.48 1016.30 1016.08 1015.92
1007.24 1008.45 1009.44 1009.41 1008.78 1007.56 1006.66 1006.17 1006.27 1006.96 1008.10 1008.65 1009.85 1010.93 1011.77 1012.47 1012.99 1013.16 1012.79 1012.89 1012.89 1013.16 1013.29 1014.39 1014.95 1015.31 1015.33 1015.56 1015.87 1015.97 1016.14 1016.51 1016.63 1016.82 1016.73 1016.65 1016.58 1016.83 1016.89 1016.88 1016.85 1016.61 1016.49 1016.22
1007.59 1008.26 1009.68 1009.60 1009.35 1008.15 1006.41 1005.78 1005.97 1006.77 1007.91 1008.13 1009.03 1009.96 1010.74 1011.54 1012.58 1012.12 1011.91 1012.60 1013.09 1013.33 1014.05 1014.94 1015.62 1015.72 1015.94 1016.34 1016.33 1016.54 1017.12 1017.41 1017.58 1017.59 1017.39 1017.30 1017.38 1017.39 1017.37 1017.34 1017.16 1016.75 1016.45 1016.14
1008.33 1009.18 1009.47 1009.70 1009.56 1008.51 1008.28 1006.43 1006.12 1007.33 1008.34 1007.92 1008.34 1008.93 1009.60 1010.53 1010.65 1011.07 1011.70 1012.53 1013.16 1013.95 1014.61 1015.31 1015.86 1016.43 1016.73 1016.77 1017.02 1017.74 1018.23 1018.49 1018.41 1018.02 1017.85 1017.88 1017.80 1017.73 1017.79 1017.60 1017.26 1016.90 1016.62 1016.20
1007.83 1008.60 1009.30 1009.59 1009.80 1010.05 1009.60 1009.46 1009.63 1007.82 1007.36 1007.59 1007.80 1007.91 1008.44 1009.17 1010.36 1011.04 1011.88 1012.84 1013.58 1014.33 1015.06 1015.62 1016.30 1016.98 1017.38 1017.69 1017.96 1018.63 1019.02 1019.07 1018.81 1018.59 1018.51 1018.45 1018.24 1018.08 1017.83 1017.65 1017.30 1016.97 1016.81 1016.75
1008.08 1008.65 1009.44 1009.86 1009.99 1010.38 1010.15 1010.67 1010.27 1009.17 1008.38 1008.41 1008.31 1007.40 1007.80 1008.77 1010.07 1011.00 1012.16 1012.85 1013.53 1014.29 1015.26 1016.07 1016.85 1017.49 1017.88 1018.28 1018.67 1019.23 1019.59 1019.49 1019.32 1019.35 1019.31 1018.94 1018.51 1018.21 1017.87 1017.74 1017.41 1017.25 1017.26 1017.18
1008.61 1008.91 1009.34 1009.97 1008.96 1009.16 1009.99 1009.85 1009.44 1009.26 1008.82 1008.53 1008.99 1007.40 1007.82 1008.90 1009.94 1011.28 1012.46 1013.60 1014.54 1014.91 1015.72 1016.54 1017.55 1018.18 1018.72 1018.93 1019.19 1019.58 1019.74 1019.72 1019.73 1019.76 1019.59 1019.19 1018.98 1018.67 1018.13 1017.70 1017.45 1017.25 1017.10 1017.26
1008.74 1009.17 1009.13 1009.11 1008.70 1008.60 1008.55 1009.28 1009.23 1008.91 1008.56 1009.19 1009.37 1007.55 1008.41 1009.30 1010.63 1011.68 1012.97 1013.84 1014.86 1015.40 1016.38 1016.88 1017.87 1018.47 1018.97 1019.15 1019.42 1019.62 1019.74 1019.73 1019.84 1019.79 1019.75 1019.50 1019.08 1018.85 1018.53 1017.97 1017.66 1017.49 1016.94 1016.87
1008.23 1007.99 1008.61 1008.03 1007.49 1007.46 1007.75 1008.23 1008.77 1009.00 1008.64 1008.99 1008.76 1009.02 1009.86 1010.33 1011.39 1012.37 1013.68 1014.51 1015.35 1015.84 1016.80 1017.54 1018.25 1018.72 1019.01 1019.16 1019.38 1019.50 1019.52 1019.62 1019.81 1019.89 1019.76 1019.43 1019.02 1018.77 1018.52 1018.12 1017.84 1017.22 1016.66 1016.40
Wind_Speed
9 2 3 8 7 15 6 11 13 18 9 6 9 16 15 14 8 13 11 13 15 24 8 11 8 10 11 8 8 8 9 7 7 3 4 3 4 3 3 3 5 5 4 4
7 8 8 11 11 16 15 15 22 20 19 10 16 17 21 5 4 9 15 8 14 18 29 7 11 10 7 6 8 8 8 8 5 4 3 3 4 3 4 3 4 3 6 7
10 13 7 16 17 12 19 18 13 5 6 4 5 5 7 1 11 8 4 11 14 17 22 12 10 12 8 7 7 7 7 6 6 6 4 3 4 4 3 2 2 3 8 7
10 15 17 16 17 16 10 7 8 11 10 5 4 8 4 3 1 2 8 5 13 16 17 10 13 11 11 6 6 7 8 8 6 6 5 6 5 5 4 3 3 5 7 7
13 12 16 15 17 5 7 2 7 7 9 5 5 5 6 6 2 7 6 6 4 4 12 7 6 12 12 8 7 6 8 7 6 7 4 3 2 2 3 5 5 4 4 7
10 10 8 9 8 7 9 7 6 6 4 3 6 6 7 6 6 14 17 19 8 5 10 9 10 11 10 9 8 6 7 7 8 9 8 8 8 7 5 3 4 2 2 5
12 15 16 4 6 10 13 12 6 6 6 6 2 5 5 9 8 6 11 23 12 14 16 12 14 14 12 10 8 6 7 8 9 9 8 7 7 7 8 5 3 5 3 2
3 8 7 4 4 6 5 8 3 4 3 6 8 3 4 3 2 6 12 14 17 12 16 21 16 15 15 12 9 8 8 9 8 9 9 7 8 5 4 4 2 2 4 3
3 6 5 1 4 8 6 3 6 1 4 4 2 4 2 5 8 10 12 11 13 2 4 19 18 15 15 11 10 11 9 8 9 8 8 8 8 8 6 5 2 3 3 2
4 7 8 9 9 5 4 4 3 3 2 3 2 4 2 7 5 9 13 13 7 13 23 15 7 16 9 11 8 10 10 10 9 9 7 7 7 7 7 6 5 4 4 3
6 4 7 8 5 9 9 7 4 4 4 3 3 2 4 2 4 4 5 7 9 9 12 18 18 4 16 17 13 9 9 8 8 7 7 8 6 7 6 5 4 4 3 5
2 3 3 8 19 14 11 3 6 6 7 4 5 1 4 3 1 4 8 6 8 12 16 5 3 10 9 9 8 9 7 7 8 7 8 8 8 7 6 4 4 5 6 5
2 2 4 9 9 7 5 8 3 4 4 1 2 3 5 4 5 6 6 6 7 10 6 7 8 5 2 8 6 7 8 7 7 8 7 7 7 6 5 5 5 5 5 6
3 2 6 6 8 8 11 9 3 6 3 1 2 2 5 8 6 3 5 5 6 7 8 8 7 2 8 6 7 7 6 6 7 8 8 8 7 7 6 7 6 7 7 7
5 2 3 9 12 13 14 16 4 4 5 4 1 6 5 6 5 6 5 5 6 4 6 6 4 5 10 10 8 1 6 9 8 8 7 7 7 7 7 7 7 8 7 7
4 6 4 8 14 15 15 6 7 4 6 8 7 6 7 6 5 5 7 4 5 5 3 6 7 5 6 5 7 7 6 7 7 6 6 6 6 7 7 7 7 7 7 7
2 3 2 6 9 13 9 3 6 7 8 3 3 6 8 6 5 4 6 8 7 7 9 6 4 3 2 5 4 7 7 6 6 3 2 3 5 6 5 4 4 5 4 4
2 3 1 5 7 6 3 6 6 10 10 8 7 7 8 7 4 3 4 5 7 7 7 5 4 2 5 3 4 10 11 11 11 9 7 7 7 7 6 6 6 6 6 6
6 5 2 3 4 6 5 6 7 6 8 9 10 8 8 8 5 5 8 8 8 5 8 5 5 5 7 9 8 11 11 9 9 8 7 8 8 6 6 6 6 5 5 5
6 6 5 3 3 5 3 10 7 5 3 10 12 10 11 10 5 6 11 6 11 12 11 10 7 8 9 7 10 12 11 10 10 9 7 7 7 7 7 5 5 3 3 2
6 4 9 7 5 5 14 5 9 5 7 7 9 9 11 8 6 7 13 13 14 13 12 10 9 8 7 8 11 10 8 8 6 7 8 8 7 7 6 5 5 5 6 5
8 7 5 4 0 6 8 4 11 5 6 8 8 9 8 10 11 13 13 13 12 13 11 10 9 8 7 8 9 8 7 6 6 6 7 7 7 5 6 7 6 7 6 7
3 3 1 3 5 3 2 3 4 9 5 8 9 6 13 13 13 14 11 10 9 9 9 9 9 8 7 7 7 8 5 6 6 7 7 7 6 6 6 6 6 3 6 4
7 2 4 2 7 15 6 2 3 2 3 13 16 4 9 14 15 13 11 9 6 7 8 7 8 7 6 7 7 6 6 6 6 6 7 6 6 7 7 5 3 3 4 2
1 5 5 3 8 6 3 5 5 6 9 6 18 10 9 17 14 13 11 10 9 10 9 9 7 6 6 7 7 6 5 5 5 5 6 6 5 6 6 5 4 3 3 4
4 6 5 7 10 7 5 8 6 9 7 4 10 13 10 11 12 12 9 10 11 12 9 8 7 7 5 5 6 6 5 5 5 4 5 5 4 5 4 4 6 9 10 11
Wind_Direction
256 253 184 278 244 272 271 262 271 267 210 222 234 250 252 235 236 67 64 75 139 193 171 119 114 108 101 103 108 112 121 134 127 138 138 123 145 143 113 135 146 152 187 80
270 245 221 231 243 251 242 250 260 266 226 199 234 239 246 300 103 117 112 97 78 59 339 93 124 104 105 129 129 125 132 140 158 149 151 143 147 140 145 158 160 151 101 107
224 233 145 262 272 250 248 236 264 300 303 265 234 321 121 91 105 101 100 124 117 142 179 222 126 119 118 131 142 139 143 137 147 139 130 82 86 83 94 119 116 133 110 109
248 261 191 235 252 254 257 303 346 332 336 291 313 283 212 171 114 169 162 183 152 148 177 193 138 138 134 157 128 125 113 108 114 123 117 135 149 160 181 157 157 129 120 122
283 301 211 229 239 261 259 335 285 285 284 326 298 75 246 106 4 300 253 151 205 104 138 98 149 146 137 130 121 138 117 107 93 77 104 116 112 109 115 139 157 133 136 128
272 292 299 276 296 293 302 329 336 320 290 357 262 167 357 349 303 357 358 350 185 144 130 139 241 156 134 122 131 139 125 117 106 91 78 81 87 90 93 85 98 160 130 108
271 267 266 2 6 357 13 5 326 340 350 244 358 77 230 337 349 353 5 12 130 155 126 194 214 141 135 159 164 157 137 128 120 108 96 93 100 100 98 93 79 73 98 99
277 342 13 359 130 175 273 155 228 290 270 288 350 97 280 247 290 328 42 62 50 21 146 212 170 156 154 174 165 158 145 131 123 118 114 98 86 86 88 89 80 65 121 177
358 292 341 238 168 135 247 259 204 212 354 16 239 53 344 349 355 8 35 21 33 337 193 326 173 155 162 167 160 156 130 131 131 141 143 139 135 129 135 147 126 116 138 137
289 319 344 338 335 326 21 261 357 32 224 274 275 302 210 327 360 5 8 18 44 48 43 328 283 148 149 155 137 130 134 155 164 164 153 147 146 149 153 154 180 200 199 191
278 67 305 353 329 302 320 318 353 110 137 179 253 241 353 20 58 357 8 69 81 102 68 8 349 68 115 125 143 153 157 164 159 169 159 158 146 148 142 152 179 199 214 218
277 181 284 264 278 277 253 233 138 125 281 206 180 213 253 225 29 252 82 117 111 106 118 120 1 348 117 125 146 147 162 164 168 159 160 145 134 133 127 153 209 231 226 237
332 0 331 331 331 353 23 312 6 109 69 353 74 265 208 219 131 62 84 119 119 101 122 120 77 5 159 159 158 146 166 170 153 161 126 128 139 147 178 206 223 238 241 250
92 165 176 214 254 276 301 312 38 107 100 249 243 96 65 58 74 83 109 130 131 165 152 121 123 186 66 353 162 166 170 146 117 119 131 140 149 182 201 209 215 222 231 239
130 188 294 289 293 299 294 278 109 97 134 149 62 94 80 110 118 115 137 107 93 92 64 70 45 18 35 4 339 32 89 88 106 114 138 168 184 197 211 216 223 227 226 230
226 196 214 274 282 286 293 240 141 150 154 117 143 122 111 98 82 108 135 124 95 88 91 49 23 28 27 338 355 334 112 112 118 136 175 199 211 221 222 228 235 242 251 252
179 152 109 269 284 304 304 275 137 107 70 97 105 149 132 116 115 146 147 175 184 183 190 184 208 44 58 275 279 230 129 140 156 175 314 341 26 8 341 315 354 357 336 311
104 48 44 279 312 285 226 79 100 105 121 108 106 115 123 143 171 241 224 166 197 203 214 215 205 249 283 286 40 60 57 55 58 44 33 49 50 44 31 26 19 14 5 350
151 133 297 206 260 261 151 172 147 153 188 154 145 145 158 175 151 262 232 217 228 225 182 155 117 104 75 62 64 72 60 54 49 36 26 28 36 31 10 25 12 346 358 356
150 151 151 244 224 257 211 158 171 106 279 159 149 169 164 155 172 222 205 193 115 87 88 93 84 66 59 61 64 61 48 41 29 15 14 20 14 10 353 3 341 308 319 325
170 197 205 236 232 297 8 6 106 123 230 149 165 180 167 169 187 141 111 100 109 110 104 96 80 74 54 60 72 64 50 37 8 12 24 13 359 349 37 349 328 328 322 302
175 177 221 264 271 330 26 347 340 231 150 167 189 209 165 150 128 118 115 118 119 121 114 110 104 88 67 59 79 73 56 20 6 20 16 352 337 16 354 345 333 336 359 9
180 60 148 145 162 223 69 243 260 11 28 357 301 139 153 136 136 125 125 121 120 114 122 119 113 105 96 81 79 73 45 30 14 18 348 329 351 1 338 333 329 14 18 46
23 10 103 49 262 238 197 174 218 214 16 350 310 167 136 134 129 119 109 106 101 96 94 101 100 93 87 88 83 87 64 37 26 5 335 340 5 347 331 327 350 19 15 9
118 144 153 232 299 305 280 183 184 134 130 264 285 67 117 117 118 123 122 118 110 97 83 78 76 95 104 105 97 87 73 49 26 2 348 341 346 330 323 339 328 323 313 207
234 170 179 221 206 187 227 181 190 178 140 165 103 81 67 93 109 110 91 99 97 92 85 74 76 74 74 92 106 87 64 56 35 12 325 306 314 312 334 346 329 322 327 311